STARLINK-32312, 61711

Orbit data source: Space-Track

STARLINK-32312, 61711 is a payload satellite owned by SpaceX/Seattle (US) in LEO that was launched on Wed, 30 Oct 2024 UTC via an FALCON 9 launch vehicle from the Air Force Eastern Test Range (AFETR). Payloads include a variety of satellites, spacecraft, and rockets equipped with specific instruments for various scientific and technological missions. These include communications satellites like Starlink; space stations such as the ISS; scientific satellites like the Hubble; Earth observation satellites from companies like Planet Labs, Umbra, and HawkEye 360; GPS; miniature CubeSats for education and research; and military/defense satellites.

Loading next visibility...
STARLINK-32312 details
Identifier
61711, 2024-196E
Orbit
LEO
Last TLE update10 hours ago
Origin
Flag of USSpaceX/Seattle (US)
ManufacturerSpaceX/Seattle
MissionOperational spacecraft
Bus & MotorSTARLINK V2M, Unknown motor
Mass730 kg wet, ~700 kg dry
Launch date (UTC)
2024-10-30 (1 month ago)
Launch vehicle
FALCON 9
Launch site
Air Force Eastern Test Range (AFETR)
Object type
Payload
Rocket body
Debris
Shape & HBRUnknown
Radar Cross SectionLarge (>1 m²)

Expand to show TLE details & history

TLE from 10 hours ago
0 STARLINK-32312
1 61711U 24196E   24337.06744417  .00000355  00000-0  14436-4 0  9995
2 61711  53.1627  93.9713 0000802  78.8947 281.2152 15.49316425  6295
Epoch: 2024-12-02T01:37Z
Definitive object data (Epoch: 2024-12-02T01:37:07.176Z)
Latitude-0.00003°
Longitude-1.70525°
Altitude419.526 km
Speed7.661 km/s
True Right ascension06h 15m 53s
True Declination0° 00' 00"
Sunlit
Object was in full shadow at TLE epoch
Visualization TLE readout
Latitude-32.21348°
Longitude-155.75313°
Altitude429.156 km
Speed7.654 km/s
Apparent Right ascension20h 44m 58s
Apparent Declination-36° 23' 44"
Sunlit
Object is in daylight
Visualization observer readout
Local Sidereal Time09:38:22
Azimuth75.684° E
Elevation-78.939°
Doppler factor1
Orbital elements
Apogee altitude419.528 km
Perigee altitude418.437 km
Semi-major axis6,797.12 km
Eccentricity0.0000802
Inclination53.1627°
RAAN93.9713°
Arg. of periapsis78.8947°
True anomaly281.20619°
Mean anomaly281.2152°
Eccentric anomaly281.21069°
Mean motion3.87307 °/min
BSTAR0.000014436
Orbital period92.95 mins
Loading maneuver chart data...
Loading historical data...
Loading historical data...
Loading historical data...
Loading historical data...
Loading historical data...
Loading historical data...
Loading historical data...

STARLINK-32312 Visibility forecast

Observer location: undefined°, undefined

Span
Click to sort rows by Start time (UTC) header in descending order
Start Az.
Max El. time (UTC)
Max El. Az.
Max El.
End time (UTC)
End Az.
5 mins2024-12-02 17:36:35.008Z311.564° NW2024-12-02 17:38:35.008Z357.624° N44.886°2024-12-02 17:41:35.008Z129.455° SE
4 mins2024-12-03 10:19:35.008Z211.049° SW2024-12-03 10:20:35.008Z185.589° SSW39.436°2024-12-03 10:23:35.008Z57.308° ENE
|